{"data":{"norad_id":62501,"intl_designator":"2025-003Q","name":"STARLINK-32691","alt_names":[],"object_type":"PAYLOAD","status":"ACTIVE","operator":null,"country":"US","launch_date":"2025-01-06","launch_site_code":"AFETR","launch_vehicle":null,"mission":null,"orbit_class":"UNKNOWN","rcs_meters":null,"size_class":null,"mass_kg":null,"dimensions":null,"purposes":["comms"],"wikipedia_slug":null,"has_3d_model":false,"image_url":null,"decayed_at":null,"tle_current":{"epoch":"2026-09-21T00:14:09.566016Z","epoch_age_seconds":130447,"freshness":"FRESH","line1":"1 62501U 25003Q   26264.00983294  .00018430  00000+0  67744-3 0  9995","line2":"2 62501  42.9990 265.8656 0001449 252.0948 107.9746 15.27587245 96538","mean_motion":15.27587245,"eccentricity":0.0001449,"inclination_deg":42.999,"raan_deg":265.8656,"arg_perigee_deg":252.0948,"mean_anomaly_deg":107.9746,"bstar":0.00067744,"rev_number":9653,"period_min":94.266301627833,"perigee_km":482.03321926717,"apogee_km":484.02158471087,"semimajor_km":6861.164401989,"source":"CELESTRAK","updated_at":"2026-09-22T09:00:49.619149Z"}}}